EW3197 Weather Reports


Display with metric or nautical units.
time (UTC)temp
F
wind
direction
speed
MPH
gust
MPH
rain 1hr
in
rain 24hr
in
rain mn
in
humidity
%
barometer
mb
20200808211204 84 226 0.0 1.0 0.00 0.00 0.00 64 1018.3
20200808210703 84 226 1.0 3.0 0.00 0.00 0.00 55 1018.3
20200808210205 82 168 1.0 2.0 0.00 0.00 0.00 61 1018.4
20200808205704 81 168 1.0 1.0 0.00 0.00 0.00 68 1018.4
20200808205204 81 168 0.0 1.0 0.00 0.00 0.00 65 1018.4
20200808204704 82 246 0.0 1.0 0.00 0.00 0.00 65 1018.4
20200808204204 83 246 1.0 3.0 0.00 0.00 0.00 61 1018.5
20200808203704 84 251 1.0 3.0 0.00 0.00 0.00 57 1018.5
20200808203204 84 35 1.0 2.0 0.00 0.00 0.00 60 1018.5
20200808202704 83 34 0.0 0.0 0.00 0.00 0.00 61 1018.6
20200808202204 83 34 0.0 2.0 0.00 0.00 0.00 58 1018.6
20200808201704 84 42 1.0 3.0 0.00 0.00 0.00 55 1018.5
20200808201204 84 234 1.0 3.0 0.00 0.00 0.00 55 1018.6
20200808200703 85 232 2.0 3.0 0.00 0.00 0.00 54 1018.6
20200808200205 86 232 1.0 3.0 0.00 0.00 0.00 54 1018.7
20200808195703 86 237 1.0 3.0 0.00 0.00 0.00 51 1018.7
20200808195203 86 212 1.0 3.0 0.00 0.00 0.00 54 1018.8
20200808194704 86 195 2.0 3.0 0.00 0.00 0.00 52 1018.9
20200808194204 86 212 2.0 6.0 0.00 0.00 0.00 57 1018.8
20200808193704 86 142 1.0 2.0 0.00 0.00 0.00 53 1018.8
20200808193204 86 119 2.0 3.0 0.00 0.00 0.00 54 1018.9
20200808192704 86 69 1.0 3.0 0.00 0.00 0.00 56 1018.9
20200808192204 86 242 1.0 2.0 0.00 0.00 0.00 54 1019.0
20200808191704 85 241 1.0 2.0 0.00 0.00 0.00 50 1019.1
20200808191204 85 241 1.0 3.0 0.00 0.00 0.00 56 1019.1
20200808190704 86 222 1.0 3.0 0.00 0.00 0.00 51 1019.2
20200808190203 86 164 1.0 2.0 0.00 0.00 0.00 51 1019.4
20200808185703 86 140 0.0 3.0 0.00 0.00 0.00 54 1019.4
20200808185204 85 69 1.0 3.0 0.00 0.00 0.00 54 1019.4
20200808184704 85 26 2.0 3.0 0.00 0.00 0.00 51 1019.4
20200808184204 86 231 1.0 2.0 0.00 0.00 0.00 54 1019.5
20200808183704 85 222 0.0 5.0 0.00 0.00 0.00 53 1019.5
20200808183204 85 319 2.0 3.0 0.00 0.00 0.00 52 1019.5
20200808182704 85 252 1.0 3.0 0.00 0.00 0.00 52 1019.6
20200808182203 85 227 1.0 2.0 0.00 0.00 0.00 55 1019.6
20200808181704 85 192 1.0 5.0 0.00 0.00 0.00 52 1019.7
20200808181203 85 254 1.0 6.0 0.00 0.00 0.00 53 1019.8
20200808180704 85 235 1.0 3.0 0.00 0.00 0.00 55 1019.7
20200808180204 85 235 2.0 7.0 0.00 0.00 0.00 52 1019.7
20200808175704 85 215 1.0 2.0 0.00 0.00 0.00 54 1019.8
20200808175203 85 259 1.0 3.0 0.00 0.00 0.00 52 1019.8
20200808174704 85 254 1.0 5.0 0.00 0.00 0.00 59 1019.9
20200808174203 84 238 2.0 3.0 0.00 0.00 0.00 57 1019.8
20200808173704 83 211 1.0 3.0 0.00 0.00 0.00 57 1019.9
20200808173204 83 186 1.0 3.0 0.00 0.00 0.00 56 1019.9
20200808172704 83 229 2.0 3.0 0.00 0.00 0.00 56 1020.0
20200808172203 83 78 0.0 3.0 0.00 0.00 0.00 59 1019.9
20200808171705 83 346 1.0 3.0 0.00 0.00 0.00 60 1020.0
20200808171204 83 315 1.0 3.0 0.00 0.00 0.00 57 1020.2
20200808170704 83 326 1.0 3.0 0.00 0.00 0.00 58 1020.1
20200808170204 83 355 2.0 3.0 0.00 0.00 0.00 58 1020.2
20200808165704 82 238 1.0 3.0 0.00 0.00 0.00 60 1020.2
20200808165204 82 240 3.0 5.0 0.00 0.00 0.00 62 1020.3
20200808164704 81 220 1.0 2.0 0.00 0.00 0.00 62 1020.4
20200808164204 81 178 1.0 2.0 0.00 0.00 0.00 62 1020.3
20200808163703 81 174 1.0 3.0 0.00 0.00 0.00 63 1020.4
20200808163205 81 149 2.0 3.0 0.00 0.00 0.00 62 1020.4
20200808162703 81 262 2.0 3.0 0.00 0.00 0.00 59 1020.3
20200808162203 81 224 1.0 2.0 0.00 0.00 0.00 60 1020.4
20200808161703 80 236 1.0 2.0 0.00 0.00 0.00 60 1020.3
20200808161203 80 238 2.0 5.0 0.00 0.00 0.00 58 1020.3
20200808160704 80 227 1.0 3.0 0.00 0.00 0.00 62 1020.4
20200808160205 80 225 2.0 3.0 0.00 0.00 0.00 62 1020.5
20200808155704 80 260 1.0 2.0 0.00 0.00 0.00 61 1020.5
20200808155204 81 260 1.0 3.0 0.00 0.00 0.00 59 1020.6
20200808154703 80 267 1.0 3.0 0.00 0.00 0.00 61 1020.6
20200808154204 80 224 0.0 2.0 0.00 0.00 0.00 63 1020.6
20200808153704 80 225 0.0 2.0 0.00 0.00 0.00 62 1020.7
20200808153203 80 226 1.0 3.0 0.00 0.00 0.00 60 1020.7
20200808152704 79 5 0.0 2.0 0.00 0.00 0.00 63 1020.9
20200808152204 79 10 1.0 2.0 0.00 0.00 0.00 59 1020.9
20200808151704 79 37 1.0 3.0 0.00 0.00 0.00 61 1020.9
20200808151204 79 61 0.0 2.0 0.00 0.00 0.00 56 1021.0
20200808150704 78 62 1.0 2.0 0.00 0.00 0.00 62 1021.0
20200808150204 78 43 1.0 3.0 0.00 0.00 0.00 66 1021.0
20200808145704 78 76 1.0 5.0 0.00 0.00 0.00 69 1021.1
20200808145204 78 37 2.0 3.0 0.00 0.00 0.00 69 1021.1
20200808144704 77 303 1.0 3.0 0.00 0.00 0.00 69 1021.2
20200808144204 77 321 2.0 3.0 0.00 0.00 0.00 68 1021.2
20200808143704 77 21 1.0 3.0 0.00 0.00 0.00 71 1021.2
20200808143204 77 54 2.0 3.0 0.00 0.00 0.00 71 1021.1
20200808142704 76 49 3.0 6.0 0.00 0.00 0.00 73 1021.1
20200808142204 75 41 1.0 5.0 0.00 0.00 0.00 74 1021.1
20200808141703 75 318 1.0 3.0 0.00 0.00 0.00 75 1021.1
20200808141204 75 261 0.0 1.0 0.00 0.00 0.00 76 1021.1
20200808140703 75 261 1.0 3.0 0.00 0.00 0.00 76 1021.1
20200808140204 75 262 1.0 3.0 0.00 0.00 0.00 76 1021.2
20200808135703 75 245 1.0 3.0 0.00 0.00 0.00 75 1021.2
20200808135204 75 244 0.0 3.0 0.00 0.00 0.00 77 1021.2
20200808134703 74 237 1.0 2.0 0.00 0.00 0.00 78 1021.1
20200808134203 72 237 1.0 3.0 0.00 0.00 0.00 81 1021.1
20200808133704 71 237 2.0 3.0 0.00 0.00 0.00 83 1021.1
20200808133204 71 237 0.0 1.0 0.00 0.00 0.00 88 1021.1
20200808132704 71 248 1.0 2.0 0.00 0.00 0.00 90 1021.1
20200808132204 71 289 0.0 2.0 0.00 0.00 0.00 92 1021.2
20200808131706 70 289 0.0 2.0 0.00 0.00 0.00 93 1021.2
20200808131206 70 289 1.0 2.0 0.00 0.00 0.00 93 1021.2
20200808130703 70 289 1.0 3.0 0.00 0.00 0.00 95 1021.3
20200808130203 70 23 0.0 0.0 0.00 0.01 0.00 95 1021.2
20200808125703 70 23 0.0 0.0 0.00 0.01 0.00 95 1021.3
20200808125205 69 23 0.0 0.0 0.00 0.01 0.00 96 1021.3
20200808124705 69 23 0.0 0.0 0.00 0.01 0.00 96 1021.3
20200808124204 69 23 0.0 1.0 0.00 0.01 0.00 96 1021.4
20200808123704 69 23 0.0 2.0 0.00 0.01 0.00 96 1021.4
20200808123204 69 23 0.0 1.0 0.00 0.01 0.00 96 1021.4
20200808122704 69 23 1.0 1.0 0.00 0.01 0.00 96 1021.4
20200808122204 69 23 1.0 2.0 0.00 0.02 0.00 96 1021.4
20200808121703 68 22 1.0 2.0 0.00 0.02 0.00 96 1021.4
20200808121204 68 22 1.0 2.0 0.00 0.03 0.00 96 1021.5
20200808120704 68 25 0.0 1.0 0.00 0.03 0.00 96 1021.4
20200808120204 68 27 0.0 1.0 0.00 0.05 0.00 96 1021.3
20200808115705 68 27 0.0 0.0 0.00 0.07 0.00 96 1021.3
20200808115204 67 27 0.0 0.0 0.00 0.09 0.00 96 1021.2
20200808114703 67 27 0.0 0.0 0.00 0.11 0.00 96 1021.2
20200808114204 67 27 0.0 0.0 0.00 0.11 0.00 96 1021.3
20200808113703 67 27 0.0 0.0 0.00 0.11 0.00 96 1021.2
20200808113204 67 27 0.0 0.0 0.00 0.11 0.00 96 1021.2
20200808112703 67 27 0.0 1.0 0.00 0.11 0.00 96 1021.1
20200808112204 67 27 0.0 0.0 0.00 0.11 0.00 96 1021.2
20200808111705 67 27 0.0 1.0 0.00 0.11 0.00 96 1021.2
20200808111203 67 27 0.0 1.0 0.00 0.11 0.00 95 1021.2
20200808110704 67 27 0.0 0.0 0.00 0.11 0.00 96 1021.2
20200808110204 67 27 0.0 0.0 0.00 0.11 0.00 96 1021.2
20200808105704 67 27 0.0 0.0 0.00 0.11 0.00 95 1021.1
20200808105204 67 27 0.0 1.0 0.00 0.11 0.00 95 1021.1
20200808104704 67 27 0.0 1.0 0.00 0.11 0.00 95 1021.1
20200808104204 67 27 0.0 0.0 0.00 0.11 0.00 95 1021.1
20200808103704 67 27 0.0 0.0 0.00 0.11 0.00 95 1021.0
20200808103203 67 27 0.0 1.0 0.00 0.11 0.00 95 1021.0
20200808102705 67 27 0.0 0.0 0.00 0.11 0.00 95 1020.9
20200808102204 67 27 0.0 1.0 0.00 0.11 0.00 95 1020.8
20200808101704 67 27 0.0 1.0 0.00 0.11 0.00 95 1020.8
20200808101204 67 27 0.0 0.0 0.00 0.11 0.00 95 1020.8
20200808100704 67 27 0.0 0.0 0.00 0.11 0.00 95 1020.8
20200808100204 67 27 0.0 0.0 0.00 0.11 0.00 95 1020.8
20200808095703 67 27 1.0 2.0 0.00 0.11 0.00 95 1020.8
20200808095203 67 27 0.0 0.0 0.00 0.11 0.00 95 1020.8
20200808094704 67 27 0.0 0.0 0.00 0.11 0.00 95 1020.8
20200808094204 67 27 0.0 0.0 0.00 0.11 0.00 95 1020.8
20200808093703 67 27 0.0 0.0 0.00 0.11 0.00 95 1020.7
20200808093203 67 27 0.0 0.0 0.00 0.11 0.00 95 1020.8
20200808092704 67 27 0.0 1.0 0.00 0.11 0.00 95 1020.8
20200808092204 67 27 0.0 1.0 0.00 0.11 0.00 95 1020.7
20200808091704 67 27 0.0 1.0 0.00 0.11 0.00 95 1020.6
20200808091204 67 27 0.0 0.0 0.00 0.11 0.00 95 1020.7
20200808090704 67 27 0.0 1.0 0.00 0.11 0.00 95 1020.6
20200808090203 67 27 0.0 1.0 0.00 0.12 0.00 95 1020.6
20200808085704 67 27 0.0 0.0 0.00 0.12 0.00 95 1020.6
20200808085204 67 27 0.0 0.0 0.00 0.12 0.00 95 1020.6
20200808084704 67 27 0.0 1.0 0.00 0.12 0.00 95 1020.6
20200808084204 67 27 0.0 0.0 0.00 0.12 0.00 95 1020.7
20200808083703 67 27 0.0 0.0 0.00 0.12 0.00 95 1020.7
20200808083204 67 27 0.0 1.0 0.00 0.12 0.00 95 1020.7
20200808082704 67 27 0.0 1.0 0.00 0.12 0.00 95 1020.7
20200808082203 67 27 0.0 0.0 0.00 0.12 0.00 95 1020.8
20200808081703 67 27 0.0 1.0 0.00 0.12 0.00 95 1020.8
20200808081204 67 27 0.0 1.0 0.00 0.12 0.00 95 1020.9
20200808080705 67 27 0.0 0.0 0.00 0.12 0.00 95 1021.0
20200808080204 67 27 0.0 0.0 0.00 0.12 0.00 95 1021.0
20200808075704 67 27 0.0 0.0 0.00 0.12 0.00 95 1021.0
20200808075204 67 27 0.0 0.0 0.00 0.12 0.00 95 1021.0
20200808074703 67 27 0.0 0.0 0.00 0.12 0.00 95 1021.0
20200808074203 67 27 0.0 0.0 0.00 0.12 0.00 95 1021.0
20200808073704 67 27 0.0 0.0 0.00 0.12 0.00 95 1021.0
20200808073204 67 27 0.0 0.0 0.00 0.12 0.00 95 1020.9
20200808072704 67 27 0.0 1.0 0.00 0.12 0.00 95 1020.8
20200808072204 67 27 0.0 1.0 0.00 0.12 0.00 95 1020.8
20200808071706 67 27 0.0 2.0 0.00 0.12 0.00 95 1020.7
20200808071204 67 27 0.0 0.0 0.00 0.12 0.00 95 1020.8
20200808070703 67 27 0.0 0.0 0.00 0.12 0.00 95 1020.8
20200808070203 67 27 0.0 0.0 0.00 0.12 0.00 95 1020.7
20200808065703 67 27 0.0 0.0 0.00 0.12 0.00 95 1020.7
20200808065204 67 27 0.0 0.0 0.00 0.12 0.00 95 1020.6
20200808064704 67 27 0.0 0.0 0.00 0.12 0.00 95 1020.7
20200808064204 67 27 0.0 0.0 0.00 0.12 0.00 95 1020.7
20200808063704 67 27 0.0 0.0 0.00 0.12 0.00 95 1020.6
20200808063204 67 27 0.0 0.0 0.00 0.12 0.00 95 1020.7
20200808062704 67 27 0.0 0.0 0.00 0.12 0.00 95 1020.7
20200808062204 67 27 0.0 0.0 0.00 0.12 0.00 95 1020.8
20200808061704 67 27 0.0 0.0 0.00 0.12 0.00 95 1020.7
20200808061204 67 27 0.0 0.0 0.00 0.12 0.00 95 1020.7
20200808060704 67 27 0.0 0.0 0.00 0.12 0.00 96 1020.7
20200808060204 67 27 0.0 0.0 0.00 0.12 0.00 96 1020.7
20200808055704 67 27 0.0 0.0 0.00 0.12 0.00 96 1020.6
20200808055204 67 27 0.0 0.0 0.00 0.12 0.00 95 1020.6
20200808054704 67 27 0.0 0.0 0.00 0.12 0.00 95 1020.5
20200808054204 67 27 0.0 0.0 0.00 0.12 0.00 96 1020.5
20200808053703 67 27 0.0 0.0 0.00 0.12 0.00 95 1020.5
20200808053204 67 27 0.0 0.0 0.00 0.12 0.00 95 1020.6
20200808052704 67 27 0.0 0.0 0.00 0.12 0.00 96 1020.6
20200808052203 67 27 0.0 0.0 0.00 0.12 0.00 95 1020.7
20200808051704 67 27 0.0 0.0 0.00 0.12 0.00 95 1020.7
20200808051204 67 27 0.0 0.0 0.00 0.12 0.00 95 1020.7
20200808050704 67 27 0.0 0.0 0.00 0.12 0.00 95 1020.7
20200808050204 67 27 0.0 0.0 0.00 0.12 0.00 95 1020.8
20200808045703 67 27 0.0 0.0 0.00 0.12 0.00 95 1020.8
20200808045203 68 27 0.0 0.0 0.00 0.12 0.00 95 1020.8
20200808044704 68 27 0.0 0.0 0.00 0.12 0.00 95 1020.7
20200808044204 68 27 0.0 0.0 0.00 0.12 0.00 95 1020.7
20200808043704 68 27 0.0 0.0 0.00 0.12 0.00 95 1020.7
20200808043204 68 27 0.0 0.0 0.00 0.12 0.00 95 1020.6
20200808042704 68 27 0.0 0.0 0.00 0.12 0.00 95 1020.5
20200808042203 69 27 0.0 0.0 0.00 0.12 0.00 95 1020.5
20200808041703 69 27 0.0 0.0 0.00 0.12 0.00 95 1020.5
20200808041203 69 27 0.0 0.0 0.00 0.12 0.00 95 1020.6
20200808040703 69 27 0.0 0.0 0.00 0.12 0.00 95 1020.5
20200808040204 69 27 0.0 0.0 0.00 0.12 0.00 95 1020.4
20200808035704 69 27 0.0 0.0 0.00 0.12 0.12 94 1020.4
20200808035204 69 27 0.0 0.0 0.00 0.12 0.12 95 1020.3
20200808034704 69 27 0.0 0.0 0.00 0.12 0.12 95 1020.3
20200808034204 69 27 0.0 0.0 0.00 0.12 0.12 94 1020.2
20200808033703 69 27 0.0 0.0 0.00 0.12 0.12 94 1020.1
20200808033204 69 27 0.0 0.0 0.00 0.12 0.12 94 1020.1
20200808032703 70 27 0.0 0.0 0.00 0.12 0.12 94 1019.9
20200808032204 70 27 0.0 0.0 0.00 0.12 0.12 94 1020.0
20200808031703 70 27 0.0 0.0 0.00 0.12 0.12 94 1020.1
20200808031204 70 27 0.0 0.0 0.00 0.12 0.12 94 1020.2
20200808030704 70 27 0.0 0.0 0.00 0.12 0.12 94 1020.2
20200808030204 70 27 0.0 0.0 0.00 0.12 0.12 94 1020.2
20200808025703 70 27 0.0 0.0 0.00 0.12 0.12 94 1020.1
20200808025203 70 27 0.0 0.0 0.00 0.12 0.12 94 1020.2
20200808024704 70 27 0.0 0.0 0.00 0.12 0.12 94 1020.2
20200808024204 70 27 0.0 0.0 0.00 0.12 0.12 94 1020.2
20200808023704 70 27 0.0 0.0 0.00 0.12 0.12 94 1020.2
20200808023204 70 27 0.0 0.0 0.00 0.12 0.12 94 1020.1
20200808022704 70 27 0.0 0.0 0.00 0.12 0.12 94 1020.0
20200808022204 71 27 0.0 0.0 0.00 0.12 0.12 94 1020.0
20200808021704 71 27 0.0 0.0 0.00 0.12 0.12 94 1020.2
20200808021204 71 27 0.0 0.0 0.00 0.12 0.12 94 1020.2
20200808020703 71 27 0.0 0.0 0.00 0.12 0.12 94 1020.3
20200808020203 71 27 0.0 0.0 0.00 0.12 0.12 94 1020.2
20200808015704 71 27 0.0 0.0 0.00 0.12 0.12 94 1020.2
20200808015204 71 27 0.0 0.0 0.00 0.12 0.12 94 1020.2
20200808014704 71 27 0.0 0.0 0.00 0.12 0.12 94 1020.4
20200808014204 71 27 0.0 0.0 0.00 0.12 0.12 94 1020.3
20200808013704 71 27 0.0 0.0 0.00 0.12 0.12 94 1020.4
20200808013204 71 27 0.0 0.0 0.00 0.12 0.12 94 1020.3
20200808012704 72 27 0.0 0.0 0.00 0.12 0.12 94 1020.3
20200808012203 72 27 0.0 0.0 0.00 0.12 0.12 94 1020.3
20200808011704 72 27 0.0 0.0 0.00 0.12 0.12 94 1020.3
20200808011203 72 27 0.0 0.0 0.00 0.12 0.12 94 1020.3
20200808010704 72 27 0.0 0.0 0.00 0.12 0.12 93 1020.2
20200808010204 72 27 0.0 0.0 0.00 0.12 0.12 93 1020.3
20200808005704 72 27 0.0 0.0 0.00 0.12 0.12 93 1020.3
20200808005205 72 27 0.0 0.0 0.00 0.12 0.12 93 1020.2
20200808004703 72 27 0.0 0.0 0.00 0.12 0.12 93 1020.2
20200808004204 72 27 0.0 0.0 0.00 0.12 0.12 93 1020.1
20200808003705 72 27 0.0 0.0 0.00 0.12 0.12 93 1020.0
20200808003204 72 27 0.0 0.0 0.00 0.12 0.12 93 1019.8
20200808002703 73 27 0.0 1.0 0.00 0.12 0.12 93 1019.9
20200808002204 73 27 0.0 0.0 0.00 0.12 0.12 92 1019.8
20200808001703 73 27 0.0 0.0 0.00 0.12 0.12 92 1019.7
20200808001204 73 27 0.0 1.0 0.00 0.12 0.12 92 1019.8
20200808000704 73 27 0.0 1.0 0.00 0.12 0.12 92 1019.8
20200808000204 73 27 0.0 1.0 0.00 0.12 0.12 91 1019.8
20200807235703 73 27 2.0 3.0 0.00 0.12 0.12 91 1019.6
20200807235204 74 24 0.0 0.0 0.00 0.12 0.12 91 1019.8
20200807234707 74 24 0.0 0.0 0.00 0.12 0.12 91 1019.9
20200807234205 74 24 0.0 0.0 0.00 0.12 0.12 91 1019.6
20200807233704 74 24 0.0 1.0 0.00 0.12 0.12 91 1019.4
20200807233204 74 24 0.0 1.0 0.00 0.12 0.12 90 1019.3
20200807232704 74 24 1.0 1.0 0.00 0.12 0.12 90 1019.2
20200807232203 74 23 1.0 1.0 0.00 0.12 0.12 90 1019.2
20200807231704 74 24 0.0 2.0 0.00 0.12 0.12 90 1019.2
20200807231204 75 24 1.0 2.0 0.00 0.12 0.12 89 1019.3
20200807230704 75 24 1.0 1.0 0.00 0.12 0.12 89 1019.5
20200807230203 75 24 1.0 2.0 0.00 0.12 0.12 89 1019.5
20200807225703 75 24 0.0 1.0 0.00 0.12 0.12 90 1019.4
20200807225204 75 23 1.0 2.0 0.00 0.12 0.12 90 1019.5
20200807224704 75 23 0.0 1.0 0.00 0.12 0.12 89 1019.4
20200807224204 75 23 0.0 0.0 0.00 0.12 0.12 89 1019.4
20200807223704 75 23 0.0 0.0 0.00 0.12 0.12 88 1019.3
20200807223204 75 23 0.0 0.0 0.00 0.12 0.12 88 1019.2
20200807222704 75 23 0.0 0.0 0.00 0.12 0.12 87 1019.2
20200807222204 76 23 0.0 0.0 0.00 0.12 0.12 86 1019.2
20200807221703 76 23 0.0 0.0 0.00 0.12 0.12 87 1019.2
20200807221204 76 23 0.0 1.0 0.00 0.12 0.12 85 1019.2
20200807220703 76 23 0.0 0.0 0.00 0.12 0.12 82 1019.3
20200807220204 76 23 0.0 0.0 0.00 0.12 0.12 82 1019.3
20200807215703 76 23 0.0 1.0 0.00 0.12 0.12 81 1019.3
20200807215203 76 23 0.0 1.0 0.00 0.12 0.12 79 1019.3
20200807214711 76 23 0.0 1.0 0.00 0.12 0.12 80 1019.4
20200807214203 76 24 0.0 1.0 0.00 0.12 0.12 81 1019.4
20200807213705 76 24 0.0 1.0 0.00 0.12 0.12 82 1019.4
20200807213205 76 24 0.0 1.0 0.00 0.12 0.12 81 1019.4
20200807212704 76 24 0.0 1.0 0.00 0.12 0.12 83 1019.5
20200807212204 75 24 1.0 2.0 0.00 0.12 0.12 82 1019.5
20200807211707 75 24 1.0 2.0 0.00 0.12 0.12 82 1019.5